SCOUT X-4 DEB, 976

Orbit data source: Space-Track

SCOUT X-4 DEB, 976 is space debris in LEO originally from a launch on Sat, 10 Oct 1964 UTC launched from the Air Force Western Test Range (AFWTR). Debris objects in space refer to the collection of defunct objects orbiting the Earth. Examples of debris include non-operational satellites, rocket bodies, and fragments generated from explosions, collisions, or faulty payload assembly.

Loading next visibility...
Identifier
976, 1964-064C
Orbit
LEO
Country
Flag of USUS
Related business
Manufacturer
APL
Mission
Spacecraft
Bus & Motor
Unknown
Mass
Unknown
Launch date (UTC)
1964-10-10 (61 years ago)
Launch vehicle
Unknown
Launch site
Air Force Western Test Range (AFWTR)
Object type
Payload
Rocket body
Debris
Shape & HBR
Unknown shape, 0.1 m
Radar Cross Section
Small (<0.1 m²)

Expand to show TLE details & history
Last TLE update: 3 days ago

TLE from 3 days ago
0 SCOUT X-4 DEB
1   976U 64064C   25308.20995919  .00000600  00000-0  33126-3 0  9998
2   976  79.3144 224.2797 0114458 273.4823  85.3254 14.07813259111311
Epoch: 2025-11-04T05:02Z
TLE epoch observation values (Epoch: 2025-11-04T05:02:20.474Z)
Latitude
Longitude
104.99413°
Altitude
863.878 km
Speed
7.424 km/s
True Right ascension
14h 57m 07s
True Declination
0° 00' 00"
Sunlit
Object was in daylight at epoch
Visualization orbit readout
Latitude
Unknown
Longitude
Unknown
Altitude
Unknown
Speed
Unknown
Apparent Right ascension
Unknown
Apparent Declination
Unknown
Sunlit
N/A
Visualization observer readout
Local Sidereal Time
22:14:17
Azimuth
Unknown
Elevation
Unknown
Doppler factor
Unknown
Orbital elements
Apogee altitude
947.037 km
Perigee altitude
781.249 km
Semi-major axis
7,242.28 km
Eccentricity
0.01145
Inclination
79.3144°
RAAN
224.2797°
Arg. of periapsis
273.4823°
True anomaly
86.63404°
Mean anomaly
85.3254°
Eccentric anomaly
85.97958°
Mean motion
3.52152 °/min
Orbital period
102.23 mins
BSTAR
0.00033126
Loading maneuver chart data...
Computing Atmospheric mass density...
Loading historical data...
Loading historical data...
Loading historical data...
Loading historical data...
Loading historical data...
Loading historical data...
Loading historical data...
Other satellites on launch #64 in the year 1964 (1964-10-10 UTC)

Documentation

Showing up to 5 results
|